"Pseudo-MPEC" for P2129Ko

Created 2020 Jul 1 1:07:14 UT using Find_Orb

Click here for an explanation of pseudo-MPECs

 
 Astrometry: 
     P2129Ko  C2020 06 22tr.?(A9=E4h60GL!mA$Sgau$#FY^@x0Nq9J10IeD7U8(0_$48ku4F52
     P2129Ko  C2020 06 22ESkk3)fe:n\SrGcAAstrometry3b2i=Jq'/u;@jjfC[10dwuXFXeF52
     P2129Ko  C2020 06 22YO`lkr[.redacted;w-5`(*bItRiqgT(,R#dR5PpoYV;J)Q2Z^!@F52
     P2129Ko  C2020 06 26@+]CYifPWA2cM6M%KWclickut6,6`5grI%MCyXC7p/B'*TjWDq\JF52
     P2129Ko  C2020 06 26O2D?4-URVZyZ8ZW*PfL1KZU(%L?OUQsuobUV=a2xA12Zkidu/j`ZF52
     P2129Ko  C2020 06 26J;=)B\Xwg,L6n'l1C$cdiOD5rbd\,KpWf3`bIs`6%fLMH^kBUfQTF52
     P2129Ko  C2020 06 26!Jpe`#jV4WjNs9GY*VSHul9qnH]yV8#MXc*H@YdlSWnfatf(4mt'F52
     P2129Ko pC2020 06 26h*g`nkgLTquNiT86aJ*N1X:)`OvZ0;H:qjU?5BlCnAr]uds74We6L01
     P2129Ko pC2020 06 26%)v.Z1sO33#h?le16YRbp(D?o!^o7cxhL2yEa22ajU[\@lLSy4I[L01
     P2129Ko pC2020 06 26;GT0I8Y`U1('D'_n9G^n\@4NmA'[DPlJ`;sUr+^SO?Z43M5KAql/L01
     P2129Ko pC2020 06 269P[NNx%@e5?_E7D]DsXaj+Q;La5V?8Onj.hls$12#V`!)bYE,ePHL01
     P2129Ko KC2020 06 27kR/'/dF!mnE!]7Na#;YK$Z/@:TMY*u$6^+E,ohereEJ]7Sx:nM?@H21
     P2129Ko KC2020 06 27.(;\h[@=9WUEVX+W'+RCm_u-Sl5LfCU'yko42fMCBryW0'cg3`ZLH21
     P2129Ko KC2020 06 27[B%MW,nT;uS,Egr1:;S3oSjY5-FG[O]#.d4nXh/TAy.40H*for5SH21
     P2129Ko !C2020 06 27KZ2:A3qinLq.6+#oM2#n(qfJU^:.0ttJ;-A^!A0L*G1ap^MsRVO.673
     P2129Ko !C2020 06 27'o3\TMD!hLdUM+eTifeP6$$cV48?;bRw%u49vefexplanationQm673

Station data:
(673) Table Mountain Observatory, Wrightwood  (N34.381488 W117.682170)
   US/California.  Observer W. M. Owen Jr. 0.61-m f/16 reflector + CCD.
(F52) Pan-STARRS 2, Haleakala  (N20.707384 W156.255910)  US/Hawaii. 1.8-m
   Ritchey-Chrétien + CCD.
(H21) Astronomical Research Observatory, Westfield  (N39.483057 W87.968270)
   US/Illinois. 0.76-m f/3.0 astrograph + CCD.
(L01) Višnjan Observatory, Tičan  (N45.290900 E13.749300)  Croatia.
   Observers K. Korlević, E. Pettarin. Measurer E. Pettarin. 1.0-m f/2.9
   reflector + CCD.

Orbital elements:  P2129Ko
   Perihelion 2020 Aug 3.261736 +/- 2.98 TT =  6:16:54 (JD 2459064.761736)
Epoch 2020 Jun 27.0 TT = JDT 2459027.5   Earth MOID: 0.5472   AutoNEOCP
M 348.53320391 +/- 1.4              (J2000 ecliptic)
n   0.30773649 +/- 0.0172           Peri.  180.72726 +/- 1.8
a   2.17278480 +/- 0.0808           Node   143.88135 +/- 0.33
e   0.2821447 +/- 0.0208            Incl.   17.05908 +/- 0.13
P   3.20                   H 19.0   G  0.15   U 10.0  
q 1.55974501 +/- 0.0131    Q 2.78582458 +/- 0.153
From 16 observations 2020 June 22-27; mean residual 0".43
Residuals in arcseconds: 
200622 F52  .03-  .10+    200626 F52  .48+  .37-    200627 H21  .12-  .26+    
200622 F52  .15-  .28-    200626 L01  1.2-  .34+    200627 H21  .31-  .36+    
200622 F52  .16+  .17+    200626 L01  .68-  .47+    200627 673  .34+  .11+    
200626 F52  .37+  .26-    200626 L01  .92-  .09-    200627 673  .27-  .24-    
200626 F52  .28+  .29-    200626 L01  .00   .92+    
200626 F52  .29+  .21-    200627 H21  .25-  .66+    

Ephemerides (geocentric):
Date (UTC) HH   RA              Dec         delta   r     elong  mag " sig PA
---- -- -- --  -------------   -----------  ------ ------ -----  --- ---- ---
2020 07 01 01  22 35 32.676   +01 59 09.11  .82428 1.5784 117.7 21.0 3.46   1
2020 07 01 02  22 35 36.444   +01 58 57.25  .82395 1.5784 117.7 21.0 3.53   1
2020 07 01 03  22 35 40.211   +01 58 45.35  .82363 1.5783 117.7 21.0 3.59   1
2020 07 01 04  22 35 43.976   +01 58 33.40  .82331 1.5783 117.8 21.0 3.65   1
2020 07 01 05  22 35 47.740   +01 58 21.40  .82299 1.5783 117.8 21.0 3.71   1
2020 07 01 06  22 35 51.501   +01 58 09.36  .82267 1.5782 117.8 21.0 3.78   1
2020 07 01 07  22 35 55.261   +01 57 57.27  .82235 1.5782 117.8 21.0 3.84   1
2020 07 01 08  22 35 59.018   +01 57 45.13  .82203 1.5781 117.9 21.0 3.91   1
2020 07 01 09  22 36 02.774   +01 57 32.94  .82170 1.5781 117.9 21.0 3.97   1
2020 07 01 10  22 36 06.529   +01 57 20.71  .82138 1.5780 117.9 21.0 4.04   1
2020 07 01 11  22 36 10.281   +01 57 08.43  .82106 1.5780 117.9 21.0 4.11   1
2020 07 01 12  22 36 14.032   +01 56 56.10  .82074 1.5779 118.0 21.0 4.17   1
2020 07 01 13  22 36 17.780   +01 56 43.73  .82042 1.5779 118.0 21.0 4.24   1
2020 07 01 14  22 36 21.527   +01 56 31.30  .82010 1.5778 118.0 21.0 4.31   1
2020 07 01 15  22 36 25.272   +01 56 18.83  .81978 1.5778 118.0 21.0 4.38   1
2020 07 01 16  22 36 29.016   +01 56 06.32  .81946 1.5778 118.1 21.0 4.45   1
2020 07 01 17  22 36 32.757   +01 55 53.75  .81914 1.5777 118.1 21.0 4.52   1
2020 07 01 18  22 36 36.497   +01 55 41.14  .81882 1.5777 118.1 21.0 4.59   1
2020 07 01 19  22 36 40.234   +01 55 28.48  .81850 1.5776 118.2 21.0 4.66   1
2020 07 01 20  22 36 43.970   +01 55 15.77  .81818 1.5776 118.2 21.0 4.73   1
2020 07 01 21  22 36 47.705   +01 55 03.02  .81786 1.5775 118.2 21.0 4.80   1
2020 07 01 22  22 36 51.437   +01 54 50.22  .81754 1.5775 118.2 21.0 4.88   1
2020 07 01 23  22 36 55.167   +01 54 37.37  .81722 1.5774 118.3 21.0 4.95   1
2020 07 02 00  22 36 58.896   +01 54 24.47  .81691 1.5774 118.3 21.0 5.02   1
2020 07 02 01  22 37 02.623   +01 54 11.52  .81659 1.5773 118.3 21.0 5.10   1
2020 07 02 02  22 37 06.348   +01 53 58.53  .81627 1.5773 118.3 21.0 5.17   1
2020 07 02 03  22 37 10.071   +01 53 45.49  .81595 1.5773 118.4 21.0 5.25   1
2020 07 02 04  22 37 13.792   +01 53 32.40  .81563 1.5772 118.4 21.0 5.32   1
2020 07 02 05  22 37 17.511   +01 53 19.26  .81531 1.5772 118.4 21.0 5.40   1
2020 07 02 06  22 37 21.229   +01 53 06.08  .81499 1.5771 118.4 21.0 5.48   1
2020 07 02 07  22 37 24.944   +01 52 52.84  .81468 1.5771 118.5 21.0 5.55   1
2020 07 02 08  22 37 28.658   +01 52 39.56  .81436 1.5770 118.5 21.0 5.63   1
2020 07 02 09  22 37 32.370   +01 52 26.23  .81404 1.5770 118.5 21.0 5.71   1
2020 07 02 10  22 37 36.080   +01 52 12.85  .81372 1.5769 118.6 21.0 5.79   1
2020 07 02 11  22 37 39.789   +01 51 59.43  .81340 1.5769 118.6 21.0 5.87   1
2020 07 02 12  22 37 43.495   +01 51 45.96  .81309 1.5769 118.6 21.0 5.95   1
2020 07 02 13  22 37 47.199   +01 51 32.43  .81277 1.5768 118.6 21.0 6.03   1
2020 07 02 14  22 37 50.902   +01 51 18.86  .81245 1.5768 118.7 21.0 6.11   1
2020 07 02 15  22 37 54.603   +01 51 05.24  .81214 1.5767 118.7 21.0 6.19   1
2020 07 02 16  22 37 58.302   +01 50 51.58  .81182 1.5767 118.7 21.0 6.28   1
2020 07 02 17  22 38 01.999   +01 50 37.86  .81150 1.5766 118.7 21.0 6.36   1
2020 07 02 18  22 38 05.694   +01 50 24.10  .81119 1.5766 118.8 21.0 6.44   1
2020 07 02 19  22 38 09.387   +01 50 10.28  .81087 1.5765 118.8 21.0 6.53   1
2020 07 02 20  22 38 13.079   +01 49 56.42  .81055 1.5765 118.8 21.0 6.61   1
2020 07 02 21  22 38 16.768   +01 49 42.51  .81024 1.5765 118.9 21.0 6.70   1
2020 07 02 22  22 38 20.456   +01 49 28.55  .80992 1.5764 118.9 21.0 6.78   1
2020 07 02 23  22 38 24.142   +01 49 14.54  .80960 1.5764 118.9 21.0 6.87   1
2020 07 03 00  22 38 27.826   +01 49 00.49  .80929 1.5763 118.9 21.0 6.96   1